Location: Unspecified
(0.0000°N, 0.0000°E)
Time: 12:14:39
(UTC+00:00)

Envisat - Pass Details

Date: 11 December 2019
Orbit: 764 x 766 km, 98.1° (Epoch: 11 December)

Event Time Altitude Azimuth Distance (km) Brightness Sun altitude
Rises 18:25:43 0° 170° (S) 3,230 6.4 -7.5°
Reaches altitude 10° 18:28:02 10° 170° (S) 2,302 5.7 -8.0°
Maximum altitude 18:33:06 83° 257° (WSW) 773 3.1 -9.2°
Drops below altitude 10° 18:38:10 10° 346° (NNW) 2,291 5.4 -10.3°
Sets 18:40:27 0° 347° (NNW) 3,214 6.1 -10.8°
